DEMMH EDLP-EDLP

Flight info

Callsign DEMMH
Flight time 0h 9m
Altitude
Route DCT
Aircraft BA58

Departure

Time 2026-05-06 17:42
Airport Paderborn Lippstadt Airport (EDLP)

Arrival

Time 2026-05-06 17:51
Airport Paderborn Lippstadt Airport (EDLP)
Time Latitude Longitude Altitude Speed Heading
2026-05-06 17:29 51.60997 8.61566 720 ft 0 kts 147°
2026-05-06 17:33 51.60995 8.61567 720 ft 0 kts 147°
2026-05-06 17:33 51.60999 8.61602 720 ft 6 kts 60°
2026-05-06 17:33 51.61022 8.61620 719 ft 7 kts 326°
2026-05-06 17:33 51.61070 8.61646 718 ft 14 kts 57°
2026-05-06 17:34 51.61129 8.61795 719 ft 16 kts 57°
2026-05-06 17:34 51.61182 8.61927 719 ft 7 kts 54°
2026-05-06 17:34 51.61246 8.61982 715 ft 17 kts
2026-05-06 17:34 51.61374 8.62018 706 ft 15 kts 359°
2026-05-06 17:35 51.61430 8.61986 702 ft 4 kts 306°
2026-05-06 17:35 51.61435 8.61970 701 ft 0 kts 290°
2026-05-06 17:37 51.61438 8.61960 701 ft 3 kts 289°
2026-05-06 17:37 51.61438 8.61824 700 ft 14 kts 270°
2026-05-06 17:38 51.61463 8.61765 696 ft 1 kts 273°
2026-05-06 17:38 51.61428 8.61675 696 ft 44 kts 241°
2026-05-06 17:38 51.61109 8.60900 772 ft 102 kts 240°
2026-05-06 17:38 51.60707 8.59989 1216 ft 108 kts 237°
2026-05-06 17:39 51.60203 8.58809 1085 ft 126 kts 246°
2026-05-06 17:39 51.60257 8.57621 1083 ft 106 kts 315°
2026-05-06 17:39 51.60863 8.57436 1235 ft 90 kts 40°
2026-05-06 17:39 51.61274 8.58512 1042 ft 133 kts 57°
2026-05-06 17:40 51.61778 8.59788 1129 ft 134 kts 55°
2026-05-06 17:40 51.62242 8.60985 1147 ft 114 kts 56°
2026-05-06 17:40 51.62623 8.62021 980 ft 99 kts 58°
2026-05-06 17:40 51.62917 8.62932 952 ft 90 kts 66°
2026-05-06 17:41 51.62620 8.63658 900 ft 100 kts 180°
2026-05-06 17:41 51.62022 8.63139 726 ft 101 kts 239°
2026-05-06 17:41 51.61668 8.62277 688 ft 96 kts 234°
2026-05-06 17:41 51.61277 8.61440 1220 ft 81 kts 232°
2026-05-06 17:42 51.60823 8.60629 1438 ft 115 kts 221°
2026-05-06 17:42 51.60112 8.60021 1957 ft 111 kts 197°
2026-05-06 17:42 51.59600 8.59188 2232 ft 121 kts 255°
2026-05-06 17:42 51.59407 8.57877 2342 ft 127 kts 292°
2026-05-06 17:43 51.59934 8.56811 2451 ft 114 kts 328°
2026-05-06 17:43 51.60633 8.56153 2417 ft 111 kts 340°
2026-05-06 17:43 51.61343 8.56613 1962 ft 129 kts 41°
2026-05-06 17:43 51.61806 8.57813 1798 ft 118 kts 57°
2026-05-06 17:44 51.62283 8.58885 1483 ft 122 kts 46°
2026-05-06 17:44 51.62894 8.59847 1166 ft 122 kts 36°
2026-05-06 17:44 51.63569 8.60638 962 ft 120 kts 41°
2026-05-06 17:44 51.63938 8.61721 917 ft 103 kts 100°
2026-05-06 17:45 51.63361 8.62123 978 ft 106 kts 192°
2026-05-06 17:45 51.62777 8.62693 996 ft 107 kts 126°
2026-05-06 17:45 51.62123 8.63100 789 ft 105 kts 201°
2026-05-06 17:45 51.61682 8.62304 687 ft 87 kts 230°
2026-05-06 17:46 51.61338 8.61420 1098 ft 84 kts 240°
2026-05-06 17:46 51.61132 8.60519 1420 ft 102 kts 270°
2026-05-06 17:46 51.61156 8.59309 1634 ft 110 kts 291°
2026-05-06 17:46 51.61751 8.58887 1629 ft 121 kts 38°
2026-05-06 17:47 51.61989 8.60215 1719 ft 117 kts 62°
2026-05-06 17:47 51.62206 8.61589 1692 ft 133 kts 83°
2026-05-06 17:47 51.62258 8.63006 1314 ft 116 kts 88°
2026-05-06 17:47 51.61917 8.63549 955 ft 112 kts 248°
2026-05-06 17:48 51.61745 8.62450 683 ft 88 kts 241°
2026-05-06 17:48 51.61412 8.61612 760 ft 100 kts 242°
2026-05-06 17:48 51.61050 8.60595 1057 ft 109 kts 246°
2026-05-06 17:48 51.60844 8.59449 1395 ft 104 kts 289°
2026-05-06 17:49 51.61369 8.58689 1465 ft 111 kts 359°
2026-05-06 17:49 51.61921 8.59465 1599 ft 118 kts 70°
2026-05-06 17:49 51.62157 8.60766 1780 ft 114 kts 80°
2026-05-06 17:49 51.62116 8.61840 2124 ft 105 kts 70°
2026-05-06 17:50 51.62407 8.63238 1704 ft 120 kts 53°
2026-05-06 17:50 51.62208 8.64109 977 ft 136 kts 205°
2026-05-06 17:50 51.61935 8.62974 702 ft 104 kts 246°
2026-05-06 17:50 51.61621 8.62139 689 ft 67 kts 236°
2026-05-06 17:51 51.61388 8.61586 697 ft 58 kts 238°
2026-05-06 17:51 51.61211 8.61142 695 ft 29 kts 224°
2026-05-06 17:51 51.61075 8.61034 700 ft 16 kts 200°
2026-05-06 17:51 51.61022 8.61023 701 ft 2 kts 154°
2026-05-06 17:52 51.61008 8.61041 703 ft 6 kts 134°
2026-05-06 17:52 51.60983 8.61124 707 ft 11 kts 102°
2026-05-06 17:52 51.60970 8.61243 711 ft 9 kts 102°
2026-05-06 17:52 51.60955 8.61351 714 ft 10 kts 82°
2026-05-06 17:53 51.60971 8.61466 718 ft 10 kts 80°
2026-05-06 17:53 51.60985 8.61581 720 ft 11 kts 70°
2026-05-06 17:53 51.61008 8.61712 722 ft 8 kts 57°
2026-05-06 17:53 51.61012 8.61721 722 ft 0 kts 75°